This demonstration page uses our WeatherBlox Daily Observations layout. Learn more.

39.01783, -85.05884

Hourly Observations for November 28, 2019

Temp ( °F °C ) Dew Point ( °F °C ) Humidity (%) Winds ( mph kmh ) Pressure ( in mb ) Visibility ( mi km ) Precip ( " mm )
12:52 am 00:52 Cloudy 40 4.4 27 -2.8 60 60 W 14 22 30.25 1024 10 16.0934 0 0
1:20 am 01:20 Cloudy 39 3.9 28 -2.2 65 65 WNW 15 24 30.28 1025 10 16.0934 0 0
1:52 am 01:52 Cloudy 39 3.9 28 -2.2 65 65 WNW 12 19 30.26 1025 10 16.0934 0 0
2:52 am 02:52 Cloudy 37 2.8 27 -2.8 67 67 WNW 17 28 30.3 1026 10 16.0934 0 0
3:52 am 03:52 Cloudy 37 2.8 26 -3.3 65 65 NW 15 24 30.32 1027 10 16.0934 0 0
4:52 am 04:52 Cloudy 37 2.8 26 -3.3 65 65 NW 16 26 30.34 1028 10 16.0934 0 0
5:52 am 05:52 Cloudy 36 2.2 26 -3.3 67 67 WNW 15 24 30.36 1028 10 16.0934 0 0
7:52 am 07:52 Cloudy 36 2.2 26 -3.3 67 67 NW 12 19 30.42 1030 10 16.0934 0 0
8:52 am 08:52 Cloudy 36 2.2 25 -3.9 64 64 NW 13 20 30.44 1031 10 16.0934 0 0
9:52 am 09:52 Cloudy 36 2.2 25 -3.9 64 64 NW 12 19 30.46 1031 10 16.0934 0 0
10:52 am 10:52 Cloudy 37 2.8 26 -3.3 65 65 NNW 10 17 30.47 1032 10 16.0934 0 0
12:52 pm 12:52 Cloudy 39 3.9 26 -3.3 60 60 NNE 9 15 30.41 1030 10 16.0934 0 0
1:52 pm 13:52 Cloudy 39 3.9 26 -3.3 60 60 N 7 11 30.42 1030 10 16.0934 0 0
2:52 pm 14:52 Cloudy 39 3.9 26 -3.3 60 60 NNW 8 13 30.43 1030 10 16.0934 0 0
3:52 pm 15:52 Cloudy 39 3.9 26 -3.3 60 60 VRB 7 11 30.45 1031 10 16.0934 0 0
4:52 pm 16:52 Cloudy 39 3.9 27 -2.8 62 62 NNW 6 9 30.45 1031 10 16.0934 0 0
5:52 pm 17:52 Cloudy 38 3.3 27 -2.8 65 65 N 6 9 30.44 1031 10 16.0934 0 0
6:52 pm 18:52 Cloudy 38 3.3 28 -2.2 68 68 N 3 6 30.44 1031 10 16.0934 0 0
7:43 pm 19:43 Cloudy 38 3.3 28 -2.2 68 68 N 5 7 30.46 1032 10 16.0934 0 0
7:52 pm 19:52 Cloudy 38 3.3 28 -2.2 68 68 N 3 6 30.44 1031 10 16.0934 0 0
8:52 pm 20:52 Cloudy 38 3.3 27 -2.8 65 65 NE 7 11 30.43 1031 10 16.0934 0 0
9:52 pm 21:52 Cloudy 38 3.3 28 -2.2 68 68 E 6 9 30.44 1031 10 16.0934 0 0
10:52 pm 22:52 Cloudy 38 3.3 28 -2.2 68 68 ESE 6 9 30.42 1030 10 16.0934 0 0
11:52 pm 23:52 Cloudy 37 2.8 28 -2.2 70 70 ESE 6 9 30.39 1029 10 16.0934 0 0

Powered by AerisWeather